TimeCDT,TemperatureF,Dew PointF,Humidity,Sea Level PressureIn,VisibilityMPH,Wind Direction,Wind SpeedMPH,Gust SpeedMPH,PrecipitationIn,Events,Conditions,WindDirDegrees,DateUTC
12:55 AM,48.9,46.9,93,30.19,10.0,Calm,Calm,-,N/A,,Clear,0,2012-09-10 05:55:00
1:55 AM,48.9,48.0,97,30.18,10.0,Calm,Calm,-,N/A,,Clear,0,2012-09-10 06:55:00
2:55 AM,48.0,46.0,93,30.18,10.0,Calm,Calm,-,N/A,,Clear,0,2012-09-10 07:55:00
3:55 AM,48.0,46.0,93,30.19,10.0,Calm,Calm,-,N/A,,Clear,0,2012-09-10 08:55:00
4:55 AM,46.9,45.0,93,30.19,10.0,Calm,Calm,-,N/A,,Clear,0,2012-09-10 09:55:00
5:55 AM,46.9,46.0,97,30.20,10.0,Calm,Calm,-,N/A,,Clear,0,2012-09-10 10:55:00
6:55 AM,48.0,46.0,93,30.21,10.0,Calm,Calm,-,N/A,,Clear,0,2012-09-10 11:55:00
7:55 AM,55.0,52.0,89,30.23,10.0,Calm,Calm,-,N/A,,Clear,0,2012-09-10 12:55:00
8:55 AM,63.0,55.0,75,30.23,10.0,SSE,6.9,-,N/A,,Clear,160,2012-09-10 13:55:00
9:55 AM,69.1,53.1,57,30.22,10.0,SSE,10.4,-,N/A,,Clear,160,2012-09-10 14:55:00
10:55 AM,71.1,50.0,47,30.22,10.0,South,13.8,-,N/A,,Clear,170,2012-09-10 15:55:00
11:55 AM,73.0,51.1,46,30.20,10.0,SSE,9.2,18.4,N/A,,Clear,150,2012-09-10 16:55:00
12:55 PM,73.9,50.0,43,30.18,10.0,Variable,5.8,-,N/A,,Clear,0,2012-09-10 17:55:00
1:55 PM,75.9,50.0,40,30.16,10.0,South,11.5,-,N/A,,Clear,180,2012-09-10 18:55:00
2:55 PM,77.0,51.1,40,30.12,10.0,South,11.5,17.3,N/A,,Clear,190,2012-09-10 19:55:00
3:55 PM,78.1,50.0,37,30.11,10.0,SSE,13.8,18.4,N/A,,Clear,160,2012-09-10 20:55:00
4:55 PM,78.1,51.1,39,30.10,10.0,South,12.7,25.3,N/A,,Clear,180,2012-09-10 21:55:00
5:55 PM,75.9,52.0,43,30.09,10.0,South,10.4,-,N/A,,Clear,180,2012-09-10 22:55:00
6:55 PM,71.1,53.1,53,30.08,10.0,South,5.8,-,N/A,,Clear,190,2012-09-10 23:55:00
7:55 PM,62.1,52.0,70,30.07,10.0,SSE,6.9,-,N/A,,Clear,160,2012-09-11 00:55:00
8:55 PM,59.0,51.1,75,30.08,10.0,SSE,8.1,-,N/A,,Clear,160,2012-09-11 01:55:00
9:55 PM,57.0,51.1,81,30.07,10.0,SSE,8.1,-,N/A,,Clear,160,2012-09-11 02:55:00
10:55 PM,57.0,51.1,81,30.07,10.0,SSE,6.9,-,N/A,,Clear,160,2012-09-11 03:55:00
11:55 PM,55.9,51.1,84,30.07,10.0,SSE,6.9,-,N/A,,Clear,160,2012-09-11 04:55:00